Weather Roundup
Issued by NWS

Home | Current Version | Previous Version | Graphics & Text | Print | Product List | Glossary Off
Versions: 1 2 3 4 5 6 7 8 9 10 11 12 13 14 15 16 17 18 19 20 21 22 23 24 25 26 27 28 29 30 31 32 33 34 35 36 37 38 39 40 41 42 43 44 45 46 47 48 49 50

000
NZUS93 KARX 220810
HRRWXR

CURRENT HOURLY OBSERVATIONS ACROSS
MUCH OF THE UPPER MISSISSIPPI VALLEY
NATIONAL WEATHER SERVICE LA CROSSE WI
300 AM CDT FRI AUG 22 2014


...SOUTHEAST MINNESOTA...


CITY           SKY/WX    TMP DP  RH WIND       PRES   REMARKS
ROCHESTER      FOG       70  68  93 S3        29.88S VSB 1
ROCHESTER/MAYO FAIR      73  71  95 SE3       29.87S
WINONA         CLEAR     73  72  94 CALM      29.84F
AUSTIN           N/A     72  70  94 CALM      29.87S VSB 3/4
ALBERT LEA     CLEAR     73  72  94 SW1       29.87S
DODGE CENTER   CLEAR     73  72  94 SW3       29.87S FOG
PRESTON        MOCLDY    71  71 100 S7        29.88S FOG
OWATONNA       FOG       70  68  94 CALM      29.87R VSB 1/4
FARIBAULT      HAZE      75  70  83 CALM      29.87R VSB 3/4
$$

...ELSEWHERE IN MINNESOTA...


CITY           SKY/WX    TMP DP  RH WIND       PRES   REMARKS
MINNEAPOLIS    PTCLDY    72  71  97 CALM      29.85S
INTNL FALLS    CLOUDY    63  60  90 SE5       29.94R
DULUTH         FOG       62  60  93 E7        29.91S VSB 3/4
RED WING       CLOUDY    73  72  94 CALM      29.83R
REDWOOD FALLS  FOG       71  71 100 CALM      29.88R VSB 1/4
MANKATO        CLOUDY    72  68  88 N3        29.86S VSB<1/4
WORTHINGTON    PTCLDY    66   9  10 NW5       29.91S
FAIRMONT       CLEAR     68  63  83 MISG      29.89R
$$

...SOUTHWEST WISCONSIN...


CITY           SKY/WX    TMP DP  RH WIND       PRES   REMARKS
LA CROSSE      CLEAR     74  71  91 S6        29.84F
PRAIRIE DU CHI CLEAR     71  69  92 CALM      29.86S
BOSCOBEL       FOG       70  68  93 CALM      29.87F VSB 1/4
LONE ROCK      CLOUDY    73  69  87 CALM      29.87F FOG
PLATTEVILLE    CLEAR     72  70  95 E6        29.89F
FORT MC COY    CLEAR     66  65  97 CALM      29.87F FOG
CAMP DOUGLAS   MOCLDY    70  70 100 E2        29.87F FOG
VIROQUA        FAIR      70  70 100 S5        29.88F
WIS DELLS      CLEAR     69  67  94 CALM      29.88F FOG
$$

...ELSEWHERE IN WISCONSIN...


CITY           SKY/WX    TMP DP  RH WIND       PRES   REMARKS
MILWAUKEE      FOG       70  69  97 S3        29.90F VSB 1/8
MADISON        CLOUDY    73  72  96 S5        29.88F FOG
GREEN BAY      CLOUDY    66  65  96 NE3       29.91F FOG
EAU CLAIRE     CLEAR     71  71 100 CALM      29.83F
BLACK RVR FLS  FOG       67  67 100 CALM      29.85F VSB 1/2
MEDFORD        FOG       65  65 100 SE5       29.91F VSB 1/4
WAUSAU         FOG       65  65 100 SE7       29.90F VSB 1/4
WIS RAPIDS     CLOUDY    71  70  96 SE3       29.90F FOG
MARSHFIELD     CLOUDY    71  69  93 SE5       29.89F FOG
RICE LAKE      CLOUDY    70  69  95 CALM      29.86F FOG
$$

...NORTHEAST IOWA...


CITY           SKY/WX    TMP DP  RH WIND       PRES   REMARKS
WATERLOO       PTCLDY    71  70  96 NE6       29.86R FOG
DUBUQUE        PTCLDY    71  71 100 CALM      29.88F
DECORAH        MOCLDY    70  70 100 S6        29.87S FOG
MASON CITY     PTCLDY    71  70  96 SW6       29.89R
CHARLES CITY   FOG       72  72 100 SE5       29.89R VSB 3/4
OELWEIN        PTCLDY    70  70 100 SE5       29.89R FOG
$$

...ELSEWHERE IN IOWA...


CITY           SKY/WX    TMP DP  RH WIND       PRES   REMARKS
DES MOINES     CLOUDY    80  73  79 W22G31    29.89R THUNDER
IOWA CITY      PTCLDY    73  73 100 CALM      29.87R FOG
FORT DODGE     CLOUDY    73  72  94 CALM      29.90R
MARSHALLTOWN   MOCLDY    73  72  96 CALM      29.87R FOG
CEDAR RAPIDS   MOCLDY    73  73 100 CALM      29.86R FOG
$$

...NORTHERN ILLINOIS...


CITY           SKY/WX    TMP DP  RH WIND       PRES   REMARKS
CHICAGO-OHARE  TSTM      74  70  87 W3G18     29.91R FOG
DUPAGE         LGT RAIN  74  72  93 E8        29.91S
CHICAGO-MIDWAY TSTM      75  74  96 CALM      29.93R FOG
MOLINE         MOCLDY    78  74  87 CALM      29.87R THUNDER
ROCKFORD       PTCLDY    73  71  93 CALM      29.89F FOG
STERLING       CLEAR     72  70  94 SE6       29.88S
PEORIA         PTCLDY    80  75  84 SW8       29.87F
$$

NOTE: "FAIR" INDICATES FEW OR NO CLOUDS BELOW 12,000 FEET WITH NO
SIGNIFICANT WEATHER AND/OR OBSTRUCTIONS TO VISIBILITY. WIND
SPEEDS ARE IN MILES-PER-HOUR.



USA.gov is the U.S. government's official web portal to all federal, state and local government web resources and services.